LEMUR-2-VICTOR-ANDREW (44087 NORAD) Tracking and Keplerian Element Data

This shows tracking and keplerian element data for the satellite.

Feedback or suggestion? Click here.




ElementValue
Catalog44087
NameLEMUR-2-VICTOR-ANDREW
Epoch Orbit435
Epoch Day119.9464694
Epoch Year2019
RAAN180.2587
Inclination97.4614
Eccentricity0.0014026
Argument of Perigee176.5537
Mean Anonmoly183.5798
Mean Motion15.21577792
Decay Rate1.946E-05
L11 44087U 19018K 19119.94646940 .00001946 00000-0 89236-4 0 9997
L22 44087 97.4614 180.2587 0014026 176.5537 183.5798 15.21577792 4353

Live tracking and technical data element details for LEMUR-2-VICTOR-ANDREW (NORAD 44087). LEMUR-2-VICTOR-ANDREW can be tracked NOW for your location showing map with azimuth and elevation plus other details from your city location.

Track the satellite on the map from your city or location and see movement details for azimuth, elevation, latitude, longitude, range, height, and movement on the map or in text.







IsCatalogInMostPopularTable: catalog: 44087, numindb: 33
Update: records affected: 1



GetName: 44087 LEMUR-2-VICTOR-ANDREW

Hit Count: updated at: Tue, 23 Jul 2019 02:56:40 GMT